Wind_Speed
19 19 18 18 18 17 16 15 16 18 19 20 20 20 19 19 19 19 18 17 17 17 17 17 18 17 17 17 17 16 15 15 14 14 13 13 12 12 12 11 11 11 11 10 10 10 10 10 10
20 20 20 19 19 17 17 17 18 19 20 21 21 21 21 21 21 20 19 19 18 18 18 18 19 19 19 18 18 18 17 17 16 16 15 15 14 14 14 13 13 13 13 12 12 12 12 12 11
21 21 21 20 19 19 19 19 20 21 22 22 22 23 22 22 22 21 21 21 20 20 20 20 20 20 20 20 19 19 19 19 18 17 17 17 16 16 15 15 15 15 15 15 14 14 14 14 13
22 22 22 21 20 20 21 21 22 22 22 23 23 24 24 23 23 23 23 22 22 22 21 21 21 22 22 21 21 21 20 20 20 20 19 19 18 18 17 17 17 17 17 17 17 16 16 16 16
23 22 22 22 22 22 22 22 22 23 23 23 24 24 24 24 24 24 24 24 24 24 23 23 23 23 23 23 23 23 23 23 22 22 21 21 20 20 20 19 19 19 19 19 19 19 19 18 18
23 23 23 23 22 23 24 24 24 23 24 25 25 26 25 26 26 26 25 25 25 25 25 24 24 25 25 25 26 26 25 25 24 24 24 23 23 22 22 22 22 21 21 21 21 21 21 21 21
23 23 23 23 23 24 24 24 25 25 25 26 27 27 27 27 27 27 27 27 27 27 27 27 26 26 26 27 28 28 28 28 27 27 26 26 25 25 25 25 24 24 23 24 24 24 23 23 23
23 24 24 24 24 25 25 25 26 26 25 26 27 27 26 27 29 29 29 29 28 28 28 28 28 28 28 28 28 29 29 29 29 29 29 28 28 27 27 27 26 26 26 26 26 26 26 25 25
24 25 24 24 25 25 26 26 26 27 27 27 27 27 27 28 29 30 30 30 30 29 29 29 29 30 29 29 29 30 30 30 30 30 30 30 30 30 29 29 29 29 28 28 28 28 28 28 27
25 25 25 25 26 26 27 27 27 28 28 29 29 29 29 30 31 31 31 31 31 31 30 30 30 31 31 31 31 30 31 31 31 31 31 31 31 31 31 31 31 31 31 30 30 30 30 29 29
26 26 26 27 27 27 28 28 28 29 29 29 30 30 31 31 31 32 32 32 32 32 32 32 31 31 31 31 31 32 32 32 32 32 32 32 32 32 32 33 33 33 33 33 33 33 32 32 31
26 26 26 27 27 28 28 29 29 30 31 31 31 32 32 32 32 32 33 33 33 34 33 33 33 33 33 33 32 33 34 34 34 33 33 34 34 34 34 34 35 35 35 35 35 35 34 34 34
25 25 26 26 27 27 28 29 30 30 31 31 32 32 33 33 33 34 34 34 34 35 35 35 35 34 34 34 34 34 35 36 36 36 36 36 36 36 37 37 37 36 36 36 37 37 37 36 36
25 26 26 27 28 28 29 29 30 30 31 32 32 32 34 35 35 35 35 35 35 36 36 36 36 36 36 36 36 36 37 38 38 38 38 38 38 38 38 39 39 39 38 38 38 39 39 39 39
26 27 27 27 28 29 30 29 30 30 31 32 32 33 34 35 36 36 36 36 36 37 38 38 37 36 37 38 38 38 38 39 39 40 40 40 41 41 40 40 40 40 40 40 40 41 41 42 42
26 27 27 28 29 29 30 29 30 31 31 32 32 33 34 35 36 36 36 36 37 38 39 39 39 38 38 39 39 40 40 40 41 41 42 42 42 43 43 42 42 42 42 42 42 42 43 43 43
27 27 28 29 30 30 30 30 31 32 32 32 32 33 34 35 35 36 36 37 37 38 39 39 39 39 40 40 40 41 42 42 42 43 43 44 45 45 44 44 45 45 44 44 44 44 44 45 45
28 29 29 30 31 31 31 30 30 31 32 32 32 32 33 34 35 35 36 37 38 39 39 39 39 40 41 41 42 42 43 44 44 44 45 46 46 46 46 47 47 47 47 47 46 46 46 47 48
30 30 30 31 32 32 31 31 31 31 32 32 32 32 33 33 34 35 36 37 38 39 40 40 40 41 42 42 43 43 44 45 46 46 46 47 47 47 48 48 48 49 49 49 49 49 49 49 49
31 31 31 32 33 33 32 31 31 31 31 32 32 32 33 33 34 34 35 36 38 39 40 40 41 42 43 44 44 45 45 46 47 48 48 48 48 48 49 49 50 50 51 51 50 50 50 50 50
32 32 32 33 34 34 34 33 31 31 32 32 32 32 32 32 33 34 35 36 37 38 39 41 43 43 44 45 46 47 47 47 47 47 48 49 49 49 50 50 50 51 51 51 52 52 51 51 51
33 33 34 34 35 34 34 35 32 32 32 32 32 32 32 33 33 34 35 36 37 38 40 42 44 44 45 45 46 46 47 47 48 48 49 49 50 50 50 51 51 51 52 52 53 52 52 52 52
34 34 35 35 36 36 34 36 33 32 32 32 32 32 33 33 34 35 36 37 38 39 41 42 44 44 45 45 45 45 46 46 47 48 49 49 49 50 50 51 52 52 52 52 52 53 53 52 53
34 35 36 36 36 37 35 36 34 32 31 31 32 33 34 34 35 35 37 37 38 39 41 42 43 43 44 44 45 45 46 46 46 47 48 48 48 49 50 51 52 52 52 53 53 53 54 54 54
34 35 36 37 37 37 36 36 35 33 33 33 33 33 34 35 36 36 37 37 38 39 40 41 42 42 43 43 44 44 45 46 46 47 47 47 47 48 49 50 51 52 52 53 53 54 54 55 55
35 35 35 37 38 39 38 37 36 35 35 35 35 35 36 36 37 37 38 38 39 40 40 41 41 42 43 43 44 45 46 46 46 47 47 47 46 47 48 49 50 51 52 52 53 53 54 55 55
36 36 36 38 40 41 40 39 36 36 36 36 37 37 37 37 38 38 38 39 40 40 41 41 42 42 43 44 44 45 46 47 46 47 48 47 47 47 48 49 51 51 51 52 52 53 54 54 55
38 37 37 39 41 42 42 39 36 35 35 36 37 38 38 39 38 38 39 39 40 41 41 42 43 43 43 44 44 45 45 46 47 48 48 48 48 49 49 49 50 51 51 51 53 53 54 54 54
38 38 38 40 42 42 43 40 36 36 36 37 37 38 38 38 38 38 38 40 40 40 41 41 42 43 44 45 45 45 45 45 47 47 48 48 48 49 50 50 50 51 51 51 52 52 52 53 54
39 38 39 40 41 42 43 42 37 36 37 37 38 38 38 39 39 38 38 39 40 40 40 41 41 43 44 45 46 46 46 46 46 47 47 48 49 49 50 50 50 50 51 51 52 52 52 52 53
Wind_Direction
242 243 244 246 247 249 250 250 248 247 248 249 249 250 252 254 255 257 257 257 257 257 256 253 249 248 248 247 246 246 247 249 249 251 254 257 257 258 257 254 254 255 256 257 259 261 263 264 266
242 243 244 246 248 249 247 247 247 247 248 249 250 252 253 254 256 257 257 257 256 256 256 254 251 249 248 249 248 247 247 248 249 251 253 255 256 257 259 258 256 257 257 258 259 263 264 264 266
242 242 244 246 247 248 248 247 248 249 250 251 252 253 255 256 256 257 257 257 256 255 255 254 252 251 249 248 247 248 249 249 250 251 253 254 255 256 258 259 259 259 259 259 260 263 265 266 267
243 244 245 247 247 249 250 250 251 253 254 253 254 255 256 256 257 257 257 257 256 255 254 253 252 252 251 249 248 247 249 251 252 253 254 255 255 257 258 259 260 261 261 261 262 264 266 267 267
243 245 246 248 250 251 252 252 253 254 256 257 257 258 258 257 257 257 257 257 256 256 255 254 252 251 251 250 250 249 249 251 253 254 255 255 256 257 258 259 260 261 262 263 263 264 265 266 267
244 246 248 250 251 253 253 254 254 256 257 258 259 259 259 258 258 257 257 257 256 256 254 253 252 252 252 252 251 250 251 252 253 255 256 256 256 258 259 260 261 261 262 263 265 265 265 266 267
247 247 249 252 253 254 255 255 256 256 257 259 260 260 260 260 259 259 258 257 256 255 254 254 254 254 254 254 253 252 251 253 255 256 255 256 257 258 260 261 262 262 263 264 265 265 265 265 267
249 250 251 254 255 256 256 257 258 257 258 260 261 262 262 262 261 259 259 258 256 255 255 255 255 255 255 255 255 254 253 253 254 256 256 256 257 258 260 261 262 263 263 264 265 265 265 265 265
251 253 254 256 257 257 258 258 259 259 259 260 263 264 264 264 262 259 258 258 257 256 255 255 255 255 255 255 256 255 255 254 255 256 256 257 258 258 259 261 262 263 263 264 265 265 265 266 265
252 255 257 257 258 259 259 260 260 260 260 261 264 266 266 265 264 261 258 257 257 256 256 255 255 254 254 255 256 257 257 257 257 257 257 257 258 259 260 261 262 263 263 264 264 265 265 266 266
254 255 256 257 258 260 261 261 261 261 260 261 263 265 266 266 265 262 258 256 256 256 256 255 255 254 254 255 256 257 257 257 258 259 259 259 259 260 260 261 262 263 263 264 264 265 265 265 266
255 256 257 259 259 260 262 262 262 261 262 262 263 265 266 267 267 264 259 256 255 255 255 255 255 255 255 255 256 257 257 257 257 258 258 259 260 261 261 262 263 264 264 264 264 264 265 266 266
256 257 258 259 261 263 263 263 263 263 263 263 263 265 266 266 267 265 261 256 255 255 255 256 255 255 255 255 256 257 257 257 257 258 259 259 260 262 262 262 263 264 265 265 265 265 264 265 266
258 258 259 261 262 265 265 265 265 266 265 265 266 267 267 266 266 264 260 257 256 255 255 255 255 255 256 256 257 258 258 258 258 259 260 260 261 262 262 263 263 263 264 265 266 265 265 265 266
259 260 262 263 265 267 268 268 269 269 268 267 268 268 268 267 266 264 261 258 257 256 255 255 256 256 257 257 257 258 258 258 259 260 260 261 262 262 263 263 263 264 264 265 265 265 265 266 266
260 262 264 265 266 268 269 270 271 271 270 269 269 270 268 268 267 265 261 259 257 257 257 257 257 256 258 259 260 260 260 260 260 260 261 261 262 263 264 264 264 264 265 265 265 266 266 266 266
261 263 265 267 268 270 270 272 273 274 273 272 272 272 270 269 269 266 262 261 259 259 259 259 257 258 259 261 262 261 261 262 262 261 262 263 263 263 264 264 264 264 265 265 266 266 267 267 267
264 265 266 268 270 271 272 273 275 276 274 273 273 273 272 271 270 267 265 263 262 260 260 259 258 259 261 262 262 262 261 262 263 263 263 263 264 264 264 264 264 264 264 265 266 266 267 268 268
265 266 267 269 270 272 272 273 275 276 275 274 274 273 273 272 270 268 267 266 264 261 260 259 260 261 261 263 263 263 263 262 263 264 264 264 264 264 264 264 264 264 265 265 265 267 268 268 268
264 267 268 268 270 272 274 275 275 276 275 274 273 272 273 273 271 270 269 267 265 262 260 260 261 262 263 264 264 264 263 263 264 265 266 265 265 265 265 264 263 263 264 264 265 266 267 268 268
263 266 268 269 271 274 276 276 276 276 275 274 273 273 273 271 271 270 268 267 266 264 262 261 262 264 264 265 265 265 264 264 264 265 265 266 266 266 265 264 264 263 263 264 265 266 266 268 268
265 267 269 271 273 275 278 279 276 276 275 275 274 273 273 272 271 270 269 269 268 266 265 265 263 265 266 266 266 266 266 266 267 267 266 266 266 266 265 264 264 264 264 264 265 265 266 267 267
266 268 270 272 274 275 277 279 279 277 276 275 274 273 274 273 273 272 271 270 270 269 267 267 265 266 267 267 267 268 267 267 267 267 267 266 266 266 265 264 264 264 264 264 265 265 265 266 267
267 268 270 271 273 275 276 278 279 277 276 275 275 274 274 274 274 274 273 272 271 271 269 268 267 267 268 268 268 268 269 269 268 268 267 267 266 266 265 265 265 265 265 265 266 266 266 266 267
266 268 270 272 273 276 278 277 278 278 278 278 277 276 275 275 275 275 275 273 272 271 271 270 269 268 268 269 269 269 270 270 270 269 268 268 267 267 267 266 266 267 267 266 266 266 266 266 266
266 267 269 272 274 276 277 278 279 279 278 278 278 278 277 276 276 275 274 272 271 272 271 271 270 269 269 270 270 271 271 272 272 271 270 269 268 267 267 266 267 268 268 267 267 266 266 266 266
265 266 268 271 273 275 276 278 279 278 277 277 278 279 278 278 277 276 275 273 273 272 272 272 272 271 271 271 272 272 273 273 273 272 271 271 270 269 269 268 268 268 269 268 267 267 266 266 266
265 267 268 269 272 275 276 277 280 279 278 278 279 280 279 278 278 278 277 276 274 273 273 273 274 273 274 274 273 273 274 273 274 273 272 272 271 271 271 270 269 269 270 269 268 267 267 267 267
265 266 267 269 271 274 276 278 279 280 280 280 280 279 279 278 278 278 278 277 276 275 275 274 274 274 274 274 274 274 274 274 274 275 274 272 272 272 272 271 271 271 271 270 269 269 269 268 268
263 265 267 269 271 273 275 277 279 279 280 280 280 279 278 277 276 276 276 277 277 277 277 276 275 275 275 275 275 275 275 275 275 276 275 274 273 273 272 272 271 271 270 270 270 270 269 268 267
Height
5839 5840 5842 5843 5845 5846 5847 5848 5848 5848 5848 5849 5849 5850 5851 5853 5854 5856 5855 5854 5854 5855 5855 5856 5856 5857 5857 5858 5858 5859 5860 5860 5860 5861 5861 5861 5861 5861 5860 5860 5860 5860 5859 5859 5858 5858 5858 5857 5857
5835 5837 5839 5840 5841 5842 5844 5844 5844 5844 5844 5845 5846 5846 5847 5848 5849 5850 5850 5850 5851 5851 5852 5852 5853 5854 5854 5855 5855 5856 5856 5857 5857 5858 5858 5858 5858 5858 5858 5858 5858 5857 5857 5857 5856 5856 5855 5855 5854
5831 5833 5835 5836 5837 5839 5839 5840 5840 5840 5840 5841 5842 5842 5843 5844 5845 5845 5846 5846 5846 5847 5847 5848 5849 5850 5850 5851 5852 5853 5853 5854 5854 5854 5855 5855 5855 5855 5855 5855 5855 5855 5854 5854 5854 5853 5852 5852 5851
5827 5829 5831 5832 5833 5834 5835 5835 5835 5836 5836 5837 5837 5838 5839 5840 5840 5841 5841 5841 5842 5842 5843 5844 5845 5846 5846 5847 5848 5849 5850 5850 5851 5851 5851 5852 5852 5852 5852 5852 5851 5851 5851 5851 5851 5850 5849 5849 5848
5822 5824 5826 5827 5828 5829 5829 5830 5831 5831 5832 5832 5832 5833 5834 5835 5835 5835 5836 5836 5837 5837 5838 5839 5840 5841 5842 5843 5844 5845 5845 5846 5847 5847 5847 5848 5848 5848 5848 5848 5848 5848 5848 5847 5847 5847 5846 5846 5845
5818 5819 5821 5822 5823 5824 5824 5825 5826 5826 5827 5827 5827 5828 5829 5829 5829 5830 5831 5831 5832 5832 5833 5834 5835 5836 5837 5838 5839 5840 5841 5841 5842 5842 5843 5843 5843 5844 5844 5844 5844 5843 5843 5843 5843 5842 5842 5842 5841
5813 5814 5816 5817 5818 5818 5819 5819 5820 5821 5821 5822 5821 5822 5823 5824 5824 5824 5825 5825 5826 5827 5828 5828 5829 5830 5831 5832 5833 5834 5835 5836 5837 5837 5838 5838 5838 5839 5839 5839 5839 5839 5839 5838 5838 5838 5837 5837 5837
5807 5809 5810 5812 5812 5813 5813 5813 5814 5815 5815 5815 5815 5816 5817 5817 5817 5817 5818 5819 5820 5821 5822 5822 5823 5824 5825 5826 5827 5828 5829 5830 5831 5831 5832 5832 5832 5833 5833 5833 5833 5833 5833 5833 5833 5832 5832 5832 5831
5801 5804 5805 5806 5806 5807 5807 5807 5807 5808 5808 5808 5808 5809 5810 5810 5810 5810 5811 5812 5813 5814 5815 5816 5817 5818 5819 5820 5821 5822 5823 5823 5824 5825 5825 5826 5826 5827 5827 5827 5827 5828 5828 5827 5827 5827 5826 5826 5826
5795 5797 5799 5799 5799 5800 5800 5800 5800 5801 5801 5802 5802 5802 5802 5802 5802 5802 5803 5804 5806 5807 5808 5809 5810 5811 5812 5814 5815 5815 5816 5817 5817 5818 5819 5819 5820 5820 5821 5821 5821 5821 5821 5821 5821 5821 5820 5820 5820
5789 5791 5791 5791 5792 5792 5793 5793 5793 5793 5794 5795 5794 5794 5794 5793 5794 5794 5795 5796 5798 5799 5800 5801 5802 5804 5805 5806 5807 5808 5809 5810 5810 5811 5812 5812 5812 5813 5814 5814 5814 5814 5814 5814 5814 5814 5814 5813 5813
5783 5784 5784 5784 5784 5785 5785 5785 5786 5786 5787 5786 5786 5786 5786 5785 5785 5785 5786 5788 5789 5790 5792 5793 5794 5796 5797 5799 5800 5801 5801 5802 5803 5804 5804 5805 5805 5806 5806 5807 5807 5807 5807 5807 5807 5807 5807 5806 5806
5776 5777 5777 5777 5777 5778 5777 5778 5777 5778 5778 5778 5778 5777 5777 5777 5776 5776 5776 5778 5780 5781 5783 5784 5786 5787 5789 5790 5792 5792 5793 5794 5795 5796 5797 5797 5797 5798 5798 5799 5799 5799 5799 5799 5799 5799 5799 5799 5799
5770 5770 5770 5770 5770 5770 5770 5770 5770 5771 5769 5769 5769 5769 5768 5767 5767 5767 5767 5769 5771 5772 5774 5775 5777 5779 5780 5782 5783 5784 5784 5785 5786 5787 5788 5788 5789 5789 5790 5790 5790 5791 5790 5791 5791 5791 5790 5790 5790
5763 5764 5764 5764 5763 5763 5763 5764 5762 5761 5760 5760 5760 5759 5759 5758 5758 5757 5758 5759 5761 5762 5764 5766 5767 5769 5771 5773 5774 5775 5775 5776 5777 5778 5779 5779 5780 5780 5780 5781 5781 5781 5781 5781 5782 5782 5781 5781 5781
5757 5757 5758 5758 5757 5756 5757 5757 5755 5752 5752 5752 5751 5750 5750 5749 5748 5748 5748 5750 5751 5753 5754 5756 5758 5760 5762 5763 5764 5765 5766 5766 5767 5768 5769 5769 5770 5770 5771 5771 5771 5772 5772 5772 5772 5772 5772 5771 5771
5750 5750 5750 5750 5750 5749 5748 5748 5747 5744 5743 5743 5742 5741 5740 5740 5739 5739 5740 5740 5741 5743 5745 5746 5748 5750 5752 5753 5754 5755 5756 5756 5757 5757 5758 5759 5759 5760 5760 5761 5761 5761 5761 5761 5761 5761 5761 5761 5760
5744 5743 5743 5742 5742 5741 5740 5740 5739 5736 5735 5734 5734 5733 5732 5731 5731 5731 5731 5731 5732 5733 5735 5737 5738 5740 5741 5742 5743 5744 5745 5746 5746 5746 5747 5748 5748 5748 5749 5749 5750 5750 5750 5750 5750 5750 5750 5749 5749
5736 5735 5736 5735 5734 5733 5732 5732 5731 5728 5727 5726 5726 5725 5724 5723 5722 5722 5723 5723 5723 5724 5726 5727 5729 5730 5731 5731 5732 5733 5734 5735 5734 5735 5735 5736 5736 5736 5737 5737 5738 5738 5738 5739 5739 5738 5738 5737 5736
5728 5728 5728 5728 5726 5724 5724 5724 5723 5720 5719 5718 5717 5716 5716 5715 5714 5714 5714 5714 5714 5715 5716 5717 5718 5719 5720 5720 5721 5721 5722 5722 5723 5723 5723 5723 5723 5724 5724 5724 5725 5725 5725 5726 5726 5726 5725 5725 5724
5720 5720 5720 5719 5718 5717 5716 5716 5716 5713 5711 5710 5709 5708 5708 5707 5707 5706 5705 5705 5705 5706 5706 5707 5707 5708 5709 5709 5709 5709 5710 5710 5710 5710 5710 5710 5710 5711 5711 5711 5711 5712 5712 5712 5713 5713 5712 5711 5711
5712 5712 5711 5710 5709 5709 5708 5706 5709 5706 5703 5702 5701 5700 5700 5699 5698 5697 5697 5696 5696 5696 5696 5696 5696 5696 5697 5697 5697 5697 5698 5698 5698 5698 5698 5698 5697 5697 5697 5697 5698 5698 5698 5699 5699 5699 5698 5697 5697
5703 5703 5703 5702 5700 5700 5700 5697 5699 5697 5696 5694 5693 5692 5691 5690 5689 5688 5688 5687 5686 5686 5685 5685 5685 5685 5685 5685 5685 5685 5685 5685 5684 5684 5684 5684 5684 5684 5683 5683 5684 5684 5684 5685 5685 5685 5684 5684 5684
5694 5694 5693 5692 5691 5691 5692 5690 5690 5689 5688 5686 5685 5684 5683 5682 5680 5679 5678 5677 5676 5675 5674 5674 5674 5674 5674 5674 5673 5673 5673 5672 5671 5671 5671 5671 5671 5670 5670 5670 5670 5670 5670 5671 5671 5671 5671 5670 5670
5686 5686 5685 5683 5683 5683 5683 5681 5682 5680 5679 5678 5677 5675 5674 5672 5671 5670 5668 5667 5666 5664 5663 5663 5662 5663 5663 5662 5662 5661 5660 5660 5659 5658 5658 5657 5657 5657 5657 5656 5656 5656 5656 5656 5656 5656 5657 5657 5657
5677 5678 5677 5675 5674 5673 5673 5672 5674 5672 5670 5668 5667 5666 5664 5663 5662 5660 5659 5657 5656 5655 5653 5652 5652 5652 5651 5651 5650 5649 5648 5648 5647 5646 5645 5644 5644 5643 5643 5642 5642 5642 5642 5642 5642 5642 5643 5643 5643
5668 5668 5668 5666 5663 5663 5663 5663 5665 5663 5661 5659 5658 5656 5655 5654 5652 5651 5649 5648 5646 5645 5644 5642 5641 5641 5640 5640 5639 5638 5636 5635 5634 5633 5632 5631 5630 5630 5629 5628 5628 5628 5628 5628 5627 5628 5628 5628 5629
5659 5659 5658 5656 5654 5652 5653 5654 5655 5654 5651 5650 5648 5646 5645 5644 5642 5641 5639 5637 5636 5634 5633 5632 5630 5630 5629 5628 5626 5625 5624 5623 5621 5620 5619 5618 5617 5616 5615 5615 5614 5614 5614 5613 5613 5613 5614 5614 5614
5649 5649 5648 5646 5645 5643 5642 5647 5646 5644 5642 5640 5638 5636 5635 5633 5632 5630 5629 5627 5625 5624 5622 5621 5620 5618 5617 5616 5614 5613 5611 5610 5609 5607 5606 5604 5603 5602 5601 5601 5600 5599 5599 5599 5599 5599 5599 5599 5600
5638 5638 5638 5637 5635 5633 5632 5637 5637 5635 5632 5630 5628 5626 5624 5623 5621 5620 5618 5616 5615 5613 5612 5610 5608 5607 5605 5604 5602 5600 5599 5598 5596 5594 5593 5591 5589 5588 5587 5586 5586 5585 5585 5584 5584 5584 5584 5584 5585